TimePDT,TemperatureF,Dew PointF,Humidity,Sea Level PressureIn,VisibilityMPH,Wind Direction,Wind SpeedMPH,Gust SpeedMPH,PrecipitationIn,Events,Conditions,WindDirDegrees,DateUTC
12:53 AM,46.9,46.0,97,29.94,0.2,Calm,Calm,-,N/A,Fog,Fog,0,2013-10-23 07:53:00
1:53 AM,46.9,46.0,97,29.94,0.2,Calm,Calm,-,N/A,Fog,Fog,0,2013-10-23 08:53:00
2:12 AM,46.4,46.4,100,29.95,0.5,Calm,Calm,-,N/A,Fog,Fog,0,2013-10-23 09:12:00
2:21 AM,46.4,46.4,100,29.95,0.2,Calm,Calm,-,N/A,Fog,Fog,0,2013-10-23 09:21:00
2:53 AM,46.0,46.0,100,29.94,0.2,Calm,Calm,-,N/A,Fog,Fog,0,2013-10-23 09:53:00
3:53 AM,45.0,45.0,100,29.93,0.5,SSW,4.6,-,N/A,Fog,Fog,200,2013-10-23 10:53:00
4:26 AM,44.6,44.6,100,29.95,0.2,SW,3.5,-,N/A,Fog,Fog,230,2013-10-23 11:26:00
4:34 AM,44.6,44.6,100,29.95,0.5,Calm,Calm,-,N/A,Fog,Fog,0,2013-10-23 11:34:00
4:53 AM,45.0,45.0,100,29.93,0.5,Calm,Calm,-,N/A,Fog,Fog,0,2013-10-23 11:53:00
5:38 AM,44.6,44.6,100,29.95,0.2,Calm,Calm,-,N/A,Fog,Fog,0,2013-10-23 12:38:00
5:50 AM,44.6,44.6,100,29.96,0.5,Calm,Calm,-,N/A,Fog,Fog,0,2013-10-23 12:50:00
5:53 AM,45.0,45.0,100,29.94,0.5,Calm,Calm,-,N/A,Fog,Fog,0,2013-10-23 12:53:00
6:53 AM,45.0,44.1,97,29.94,0.5,West,3.5,-,0.01,Fog,Fog,260,2013-10-23 13:53:00
7:53 AM,45.0,44.1,97,29.95,0.2,WSW,3.5,-,N/A,Fog,Fog,240,2013-10-23 14:53:00
8:53 AM,44.1,44.1,100,29.96,0.2,Calm,Calm,-,N/A,Fog,Fog,0,2013-10-23 15:53:00
9:40 AM,46.4,44.6,93,29.98,0.5,Calm,Calm,-,N/A,Fog,Fog,0,2013-10-23 16:40:00
9:53 AM,46.0,46.0,100,29.96,0.8,Calm,Calm,-,N/A,,Overcast,0,2013-10-23 16:53:00
10:16 AM,46.4,46.4,100,29.97,1.2,Calm,Calm,-,N/A,,Overcast,0,2013-10-23 17:16:00
10:34 AM,46.4,46.4,100,29.97,1.8,Calm,Calm,-,N/A,,Overcast,0,2013-10-23 17:34:00
10:48 AM,46.4,46.4,100,29.97,2.0,Calm,Calm,-,N/A,,Overcast,0,2013-10-23 17:48:00
10:53 AM,48.0,46.0,93,29.95,2.5,Calm,Calm,-,N/A,,Mostly Cloudy,0,2013-10-23 17:53:00
10:56 AM,46.4,46.4,100,29.97,2.5,Calm,Calm,-,N/A,,Mostly Cloudy,0,2013-10-23 17:56:00
11:08 AM,51.8,46.4,82,29.97,10.0,Calm,Calm,-,N/A,,Scattered Clouds,0,2013-10-23 18:08:00
11:53 AM,57.0,46.0,67,29.94,10.0,Calm,Calm,-,N/A,,Clear,0,2013-10-23 18:53:00
12:53 PM,64.0,46.0,52,29.92,10.0,Calm,Calm,-,N/A,,Clear,0,2013-10-23 19:53:00
1:53 PM,72.0,46.0,40,29.89,10.0,North,-9999.0,-,N/A,,Clear,0,2013-10-23 20:53:00
2:53 PM,75.0,48.9,40,29.87,10.0,SE,6.9,-,N/A,,Clear,140,2013-10-23 21:53:00
3:53 PM,73.0,46.9,39,29.87,10.0,South,10.4,-,N/A,,Clear,170,2013-10-23 22:53:00
4:53 PM,69.1,46.9,45,29.87,10.0,South,8.1,-,N/A,,Clear,170,2013-10-23 23:53:00
5:53 PM,57.9,46.9,67,29.88,10.0,SSE,10.4,-,N/A,,Clear,150,2013-10-24 00:53:00
6:53 PM,52.0,46.9,83,29.89,10.0,SSE,10.4,-,N/A,,Clear,160,2013-10-24 01:53:00
7:53 PM,48.9,46.9,93,29.91,10.0,SE,6.9,-,N/A,,Clear,130,2013-10-24 02:53:00
8:24 PM,48.2,46.4,93,29.93,10.0,SE,8.1,-,N/A,,Scattered Clouds,140,2013-10-24 03:24:00
8:33 PM,48.2,46.4,93,29.93,10.0,SE,5.8,-,N/A,,Mostly Cloudy,140,2013-10-24 03:33:00
8:53 PM,50.0,46.9,89,29.92,10.0,SE,5.8,-,N/A,,Overcast,140,2013-10-24 03:53:00
9:53 PM,50.0,48.0,93,29.93,10.0,East,4.6,-,N/A,,Overcast,100,2013-10-24 04:53:00
10:53 PM,48.9,48.0,97,29.95,9.0,South,4.6,-,N/A,,Overcast,180,2013-10-24 05:53:00
11:03 PM,48.2,46.4,93,29.97,9.0,South,3.5,-,N/A,,Overcast,190,2013-10-24 06:03:00
11:53 PM,48.0,46.9,96,29.96,2.5,South,3.5,-,N/A,,Overcast,190,2013-10-24 06:53:00